Wetbulb
49.47 48.43 46.36 47.92 47.84 47.23 46.23 45.37 45.32 48.54 50.15 48.49 49.85 51.07 53.22 56.96 58.46 58.81 59.59 60.87 61.64 62.51 65.06 66.95 67.42 68.00 67.54 66.94 66.70 67.41 66.80 68.55 67.78 65.92 65.45 66.36 66.66 69.06 70.39 71.17 72.95 73.02 70.22 67.87
48.37 46.56 49.59 47.91 47.02 46.59 46.08 45.44 46.82 48.79 48.64 49.41 50.43 51.99 55.06 56.70 57.83 59.04 59.57 59.97 61.19 62.39 63.43 64.56 65.74 66.70 66.33 66.53 67.16 67.57 67.49 68.40 68.34 67.35 68.00 68.57 69.54 70.19 71.06 71.86 72.63 72.02 70.08 68.18
46.80 47.39 47.84 47.55 46.71 46.23 46.88 46.38 47.12 46.79 48.01 49.20 51.66 49.69 52.11 57.31 56.99 58.33 59.64 60.43 61.29 61.79 62.18 63.99 64.42 65.42 65.73 65.99 66.63 66.95 67.60 68.65 68.72 68.89 69.26 70.51 71.43 70.91 70.09 70.66 71.01 70.32 68.44 67.70
47.45 48.61 47.09 46.94 46.88 47.99 46.13 48.74 47.91 46.21 46.17 44.90 50.37 42.96 50.16 53.42 56.15 56.45 58.55 59.54 60.11 61.29 62.44 63.31 64.35 64.71 65.74 65.64 66.02 67.36 67.79 68.08 68.65 69.62 68.89 69.56 68.45 68.47 69.94 71.06 71.10 69.19 68.15 67.16
47.78 47.40 46.85 46.62 48.70 49.09 47.90 48.43 47.26 46.39 46.66 46.02 46.02 45.18 48.59 49.83 51.40 54.05 58.31 58.97 60.14 61.18 62.02 62.27 63.00 64.44 65.24 65.68 65.90 66.42 67.51 67.98 68.41 69.01 68.87 70.00 69.62 70.31 71.59 71.66 69.99 68.82 67.75 67.65
49.45 50.17 49.48 50.28 50.27 49.59 49.22 47.71 47.08 45.86 46.25 42.89 45.66 45.14 46.38 49.09 50.82 52.38 54.50 57.50 59.63 60.08 60.69 61.62 62.85 64.19 65.22 65.58 64.85 65.79 66.57 66.76 67.73 69.07 68.55 69.84 69.44 70.57 69.85 69.18 66.58 65.96 67.92 67.75
48.06 48.81 49.83 50.43 48.87 49.14 48.23 47.72 43.60 42.09 42.03 41.19 44.41 43.70 48.40 52.26 52.91 52.41 53.16 54.59 57.06 58.19 57.59 58.43 59.48 61.04 63.17 64.93 65.85 64.61 65.48 65.57 67.01 68.10 68.50 69.34 70.59 71.06 71.09 69.86 66.63 64.20 63.86 64.71
44.14 43.76 48.42 49.64 49.94 48.23 48.28 48.54 43.98 38.24 39.94 42.90 43.63 43.54 48.12 53.41 52.63 53.05 55.35 57.67 59.06 59.16 59.58 59.29 60.46 62.91 63.28 64.90 65.56 65.24 64.52 64.60 66.99 67.90 68.50 69.89 71.22 71.48 71.05 69.81 69.16 67.19 63.61 65.08
44.62 44.60 49.73 50.17 51.45 51.18 48.16 46.20 49.44 44.53 42.26 42.20 45.48 47.15 50.44 52.86 53.76 55.37 56.13 58.05 58.77 60.06 61.44 61.91 62.98 63.40 65.21 64.89 64.91 65.97 65.16 65.35 66.67 67.41 69.06 69.84 71.18 71.72 70.74 68.45 69.78 68.67 67.66 65.56
47.72 44.14 48.74 51.20 52.12 50.06 50.08 50.14 45.25 45.80 39.88 38.90 43.03 43.04 46.08 50.83 52.46 54.65 55.29 56.15 57.49 59.17 60.64 62.16 62.63 63.24 64.67 66.55 66.14 63.41 65.30 65.60 66.69 67.38 68.09 69.32 71.05 72.02 71.14 69.62 67.46 67.53 67.69 67.16
50.90 47.24 47.14 49.06 49.01 48.15 49.06 48.03 46.03 46.09 44.92 41.59 40.40 44.08 50.32 51.84 53.09 53.71 54.63 55.34 56.22 57.50 58.69 60.60 62.09 63.13 63.85 64.65 66.19 66.55 64.35 64.94 65.90 67.28 68.91 69.95 71.06 71.68 71.09 68.73 68.51 68.63 68.48 67.98
51.23 48.42 44.49 45.64 50.56 50.19 49.65 47.60 47.76 44.65 43.35 43.95 42.62 44.46 53.62 53.57 53.72 54.39 54.29 54.72 56.02 56.93 57.40 58.40 60.06 61.95 62.69 63.31 63.95 65.96 67.84 66.82 66.84 67.79 69.05 70.12 71.27 70.74 69.93 69.16 69.23 68.71 67.95 67.95
51.07 46.97 42.42 43.95 47.13 51.35 49.57 49.30 49.43 46.78 45.92 44.57 42.39 45.42 53.58 53.34 53.08 53.55 53.53 54.20 55.12 55.77 56.52 57.32 58.09 58.49 60.40 61.49 62.71 63.20 65.96 68.16 68.65 68.68 68.57 69.14 69.13 69.16 69.51 69.52 69.77 68.97 68.18 67.44
53.80 48.26 45.82 40.93 43.91 46.79 46.34 48.39 49.00 47.40 43.56 44.55 44.93 46.87 50.76 51.88 51.27 52.42 52.53 52.81 54.10 54.85 55.51 56.07 56.73 57.45 59.05 60.35 61.08 62.01 62.69 66.45 68.89 69.24 68.27 68.26 68.57 68.48 69.20 69.55 68.94 68.64 68.18 67.40
49.37 44.46 46.15 46.31 46.47 46.98 46.83 45.71 45.66 45.01 46.56 43.65 45.99 46.57 50.11 50.55 50.16 51.76 52.92 52.27 52.24 52.58 53.80 54.80 55.52 56.48 57.84 59.06 60.19 61.24 62.20 63.33 67.64 68.41 67.98 68.12 68.59 68.55 68.72 68.74 68.49 68.06 67.33 67.02
47.87 42.79 44.71 41.31 43.81 43.88 41.72 43.52 44.08 44.00 44.55 45.23 46.09 45.69 50.32 51.01 51.02 50.75 52.18 50.89 50.88 51.38 52.30 53.29 54.65 55.63 56.61 57.87 58.88 60.13 60.93 62.32 64.44 67.41 67.01 68.43 69.06 68.26 67.69 67.62 67.58 66.94 66.41 66.24
43.98 42.94 41.23 36.20 41.64 42.22 38.04 42.31 44.19 45.98 47.19 46.88 43.90 47.80 49.61 49.04 49.29 50.04 51.21 51.32 50.91 51.72 52.18 52.37 53.08 54.50 55.92 57.27 58.41 59.05 60.28 62.22 63.19 66.77 67.47 67.07 68.18 68.09 67.23 66.76 66.32 65.68 65.66 64.73
43.88 43.12 42.15 37.68 40.18 32.05 43.17 49.10 48.84 46.75 45.19 46.45 46.18 47.64 48.78 48.86 50.13 51.19 52.71 51.91 51.32 51.64 52.04 52.71 53.38 54.16 55.32 56.49 57.64 59.09 60.26 61.50 62.20 63.56 67.06 67.09 66.93 67.41 67.43 65.24 65.06 64.33 64.35 63.19
46.37 43.65 39.97 37.51 37.18 39.85 42.11 44.08 42.76 40.78 42.22 43.24 42.90 45.08 48.71 48.38 47.78 48.48 52.76 52.74 50.97 51.17 52.87 53.35 54.09 55.01 55.66 55.64 56.25 57.43 58.96 60.30 60.80 61.77 62.81 65.69 67.48 67.22 66.99 64.33 63.35 63.46 63.02 61.97
44.44 45.58 41.76 39.07 33.33 30.28 41.35 43.95 45.52 45.16 39.03 43.27 43.14 43.78 45.09 44.92 39.76 44.09 48.91 49.27 49.81 51.38 53.07 53.44 54.50 55.51 55.80 56.28 56.85 56.07 57.90 59.33 59.37 59.68 61.44 62.10 63.28 67.95 67.58 66.16 63.60 63.16 62.92 61.63
40.25 40.73 37.96 36.91 34.99 38.51 42.07 43.71 45.44 37.18 38.39 43.52 44.14 45.18 44.94 41.97 44.07 47.24 49.18 49.58 51.01 51.15 52.35 54.14 54.48 54.38 55.32 56.34 56.37 55.75 57.78 57.58 59.48 60.09 61.19 62.46 63.62 65.72 67.07 66.35 65.75 63.09 61.76 61.34
37.88 36.91 37.49 38.56 35.58 32.10 43.30 42.50 36.43 41.44 44.19 44.71 45.40 46.26 45.84 46.53 47.16 47.85 48.81 49.89 50.61 51.03 52.16 53.43 54.07 54.48 55.93 56.94 56.30 55.34 56.67 58.80 58.81 58.54 59.14 60.47 62.16 64.99 66.17 65.27 63.66 61.81 60.01 55.43
36.45 39.59 38.62 38.92 38.96 44.04 43.77 42.88 45.38 45.70 44.59 45.73 46.10 46.96 46.90 46.28 46.80 48.02 48.63 49.52 50.33 50.89 51.67 53.53 53.91 54.15 55.67 56.32 56.58 55.53 57.60 58.67 58.06 58.04 59.20 59.60 60.54 61.22 65.67 64.26 61.81 57.92 56.47 55.55
40.12 41.19 38.55 38.27 40.35 42.06 43.45 45.58 45.87 46.87 46.18 46.96 47.65 47.44 47.46 46.21 47.25 47.55 48.50 49.28 49.51 50.54 51.20 52.61 53.08 53.18 53.79 55.22 55.48 56.60 57.08 58.49 56.68 56.50 57.42 59.30 59.18 58.52 63.37 63.15 59.60 57.05 56.13 55.08
40.62 40.37 37.89 38.23 41.07 42.59 43.91 45.40 46.25 46.64 47.87 47.84 48.51 48.31 48.02 47.63 46.94 47.26 47.17 48.24 49.88 50.86 51.16 52.40 52.44 52.72 53.50 54.62 54.82 55.98 57.10 57.51 55.39 55.37 56.92 57.21 57.31 56.75 54.10 50.68 52.76 56.75 56.29 53.71
40.82 38.87 37.35 36.66 42.50 41.88 42.67 45.94 47.50 45.99 46.81 48.10 46.73 46.56 48.23 48.23 48.05 47.86 47.29 47.35 47.75 48.78 50.85 51.22 51.70 52.82 53.36 53.74 53.70 54.83 56.76 57.02 56.28 53.84 54.37 56.03 54.80 55.75 57.34 54.57 49.43 42.62 46.08 46.44
MSLP
1010.40 1010.11 1009.83 1009.90 1010.07 1010.05 1009.96 1009.66 1009.20 1008.61 1008.30 1008.12 1007.30 1006.67 1006.03 1006.50 1006.84 1006.72 1006.70 1007.33 1007.72 1007.61 1008.01 1009.20 1010.09 1010.91 1011.77 1012.30 1012.73 1013.37 1013.80 1014.04 1014.77 1015.28 1015.70 1016.03 1015.97 1016.36 1016.56 1016.60 1016.73 1017.25 1017.61 1018.22
1010.18 1009.65 1009.66 1010.03 1010.14 1010.01 1009.91 1009.55 1008.86 1008.44 1008.28 1008.11 1007.21 1006.52 1006.16 1006.42 1006.25 1006.20 1006.39 1006.68 1006.70 1007.01 1007.81 1008.55 1009.21 1010.02 1010.63 1011.14 1011.79 1012.22 1012.60 1013.24 1013.81 1014.20 1014.51 1014.85 1015.09 1015.33 1015.68 1016.21 1016.60 1017.06 1017.47 1017.83
1009.49 1009.35 1009.53 1009.71 1009.77 1009.65 1009.37 1009.01 1008.56 1008.46 1008.19 1007.90 1007.40 1006.36 1006.12 1005.88 1006.16 1006.03 1005.99 1006.11 1006.18 1006.32 1006.78 1007.81 1008.44 1008.64 1009.65 1010.07 1010.44 1010.86 1011.30 1012.05 1012.71 1013.05 1013.96 1014.50 1014.84 1015.22 1015.38 1015.83 1016.16 1016.52 1017.16 1017.58
1009.17 1009.06 1009.24 1009.31 1009.09 1009.08 1008.63 1008.43 1008.45 1008.43 1008.09 1007.39 1007.46 1006.06 1005.84 1005.64 1005.58 1005.46 1005.33 1005.42 1005.20 1005.58 1006.12 1006.77 1006.99 1007.77 1008.13 1008.18 1009.42 1009.96 1010.47 1011.02 1011.83 1012.59 1012.83 1012.85 1012.80 1013.01 1013.32 1014.17 1015.01 1015.74 1016.50 1016.95
1008.74 1008.72 1008.78 1008.62 1008.27 1008.52 1008.04 1008.30 1008.35 1008.24 1007.94 1007.59 1007.23 1006.55 1005.37 1005.48 1004.80 1004.41 1004.23 1004.49 1004.53 1004.51 1004.92 1005.27 1005.77 1006.00 1006.14 1007.06 1007.46 1007.95 1009.03 1009.81 1010.38 1011.06 1011.53 1012.04 1012.12 1011.79 1012.32 1013.10 1014.29 1015.90 1016.91 1017.63
1008.57 1008.55 1008.32 1007.81 1007.91 1008.13 1008.21 1008.31 1008.46 1008.53 1008.02 1007.40 1007.03 1006.43 1004.79 1004.68 1004.28 1004.21 1004.31 1004.34 1004.92 1005.17 1005.25 1004.93 1004.79 1005.00 1004.96 1005.53 1006.11 1006.48 1007.32 1007.74 1008.66 1009.26 1009.96 1010.36 1010.69 1011.19 1011.92 1012.51 1013.90 1015.32 1016.50 1018.10
1008.34 1007.84 1007.70 1007.62 1007.59 1007.89 1008.02 1008.00 1007.60 1007.63 1007.35 1007.10 1007.47 1006.77 1004.99 1004.47 1004.11 1004.63 1005.08 1005.62 1005.73 1005.72 1005.45 1005.29 1004.76 1004.25 1004.39 1005.14 1005.35 1006.02 1006.17 1006.19 1006.87 1007.76 1008.53 1008.91 1009.47 1010.19 1010.69 1011.46 1012.92 1014.29 1016.03 1015.85
1008.38 1007.72 1007.43 1007.33 1007.02 1007.02 1007.41 1007.77 1007.73 1007.37 1007.50 1007.24 1007.70 1006.19 1004.67 1004.46 1005.49 1005.72 1006.00 1006.54 1006.83 1006.81 1006.57 1006.04 1005.43 1005.02 1004.56 1004.42 1004.45 1004.68 1004.92 1005.24 1006.70 1007.08 1007.16 1007.83 1008.60 1009.05 1009.63 1010.49 1011.05 1012.54 1013.35 1013.24
1009.09 1008.19 1007.48 1007.15 1006.90 1007.08 1007.31 1007.71 1007.71 1007.68 1008.44 1007.73 1006.72 1006.10 1005.27 1004.82 1006.14 1006.89 1007.16 1007.44 1007.21 1007.20 1006.82 1006.54 1006.20 1005.78 1005.14 1004.54 1003.97 1003.68 1003.95 1004.46 1005.16 1005.73 1006.28 1006.57 1006.97 1007.39 1007.82 1009.12 1010.02 1011.07 1012.45 1013.55
1010.05 1009.16 1007.94 1007.29 1007.18 1007.47 1007.34 1007.86 1008.20 1008.20 1007.69 1007.03 1006.51 1006.33 1005.44 1005.87 1007.17 1007.90 1008.23 1008.60 1008.46 1007.83 1007.36 1006.82 1006.17 1005.80 1005.26 1004.47 1003.80 1003.23 1003.40 1003.74 1004.32 1004.75 1005.39 1005.77 1006.11 1006.36 1007.30 1008.34 1008.91 1009.77 1011.12 1012.39
1011.09 1010.56 1008.92 1008.35 1007.57 1007.55 1007.94 1008.02 1008.72 1008.86 1008.42 1007.47 1006.84 1006.18 1006.89 1007.81 1008.95 1009.33 1009.62 1009.78 1009.50 1009.06 1008.44 1007.65 1006.97 1006.39 1005.54 1004.71 1003.86 1003.51 1003.46 1003.66 1003.90 1004.21 1004.66 1005.13 1005.57 1006.51 1007.17 1007.70 1008.31 1008.95 1010.12 1011.15
1012.19 1011.46 1009.99 1008.92 1008.30 1008.69 1008.74 1008.96 1009.41 1009.27 1009.09 1009.04 1008.54 1007.58 1008.55 1009.38 1010.18 1010.57 1010.79 1010.75 1010.42 1010.00 1009.24 1008.39 1007.56 1006.74 1006.04 1005.32 1004.57 1003.81 1003.57 1003.47 1003.41 1003.66 1004.05 1004.46 1004.98 1005.78 1006.42 1007.04 1007.49 1008.21 1008.95 1009.95
1012.69 1012.07 1010.84 1009.49 1009.27 1009.35 1009.59 1010.07 1010.51 1010.70 1010.46 1009.33 1008.80 1008.22 1009.49 1010.28 1010.92 1011.40 1011.52 1011.36 1010.97 1010.50 1009.63 1008.87 1008.13 1007.32 1006.66 1006.07 1005.46 1004.69 1003.85 1003.24 1003.21 1003.13 1003.63 1004.06 1004.51 1005.18 1005.63 1006.11 1006.82 1007.33 1008.14 1008.90
1013.52 1012.98 1012.04 1011.09 1010.77 1011.02 1010.72 1010.59 1010.75 1011.04 1010.58 1009.57 1009.08 1008.90 1009.36 1010.66 1011.48 1011.83 1012.15 1012.00 1011.51 1010.79 1010.28 1009.71 1009.01 1008.22 1007.59 1006.92 1006.18 1005.37 1004.70 1003.72 1003.02 1002.99 1003.39 1003.31 1003.78 1004.24 1004.77 1005.59 1006.17 1006.72 1007.22 1008.07
1014.24 1013.58 1013.06 1012.24 1011.68 1011.27 1011.14 1011.10 1011.01 1010.92 1010.46 1010.22 1009.51 1009.60 1010.22 1011.70 1012.12 1012.28 1012.44 1012.15 1011.68 1011.25 1010.82 1010.37 1009.76 1009.05 1008.42 1007.53 1006.79 1006.03 1005.33 1004.60 1003.51 1002.88 1002.91 1002.96 1003.28 1003.68 1004.05 1004.54 1005.42 1006.23 1007.29 1008.00
1015.11 1014.33 1013.93 1013.10 1012.51 1012.29 1011.84 1011.21 1010.75 1010.76 1010.89 1010.83 1010.98 1010.92 1012.35 1012.69 1012.78 1012.57 1012.46 1012.31 1011.96 1011.64 1011.26 1010.80 1010.26 1009.67 1008.94 1008.20 1007.37 1006.61 1005.61 1004.72 1004.13 1002.88 1002.54 1002.54 1002.83 1003.21 1003.49 1004.04 1004.83 1005.64 1006.31 1007.14
1015.64 1015.05 1014.64 1013.46 1013.34 1012.84 1012.18 1011.66 1011.71 1011.58 1012.18 1012.50 1012.39 1012.94 1013.27 1013.07 1013.03 1012.78 1012.39 1012.33 1012.04 1011.74 1011.48 1011.01 1010.42 1009.81 1009.25 1008.58 1007.88 1006.91 1006.17 1005.20 1004.02 1002.89 1002.10 1002.02 1002.12 1002.44 1003.04 1003.63 1003.98 1004.47 1005.06 1005.94
1015.61 1015.63 1015.30 1014.30 1014.15 1013.10 1012.59 1012.94 1013.02 1013.09 1013.65 1013.90 1013.97 1013.97 1013.97 1013.85 1013.53 1013.01 1012.34 1012.30 1011.97 1011.72 1011.28 1010.75 1010.31 1009.85 1009.21 1008.61 1007.93 1007.24 1006.48 1005.63 1004.51 1003.30 1002.25 1001.74 1001.45 1001.74 1002.29 1002.85 1003.29 1003.98 1004.43 1004.70
1015.91 1015.82 1015.31 1014.84 1014.23 1013.53 1013.07 1013.95 1014.32 1014.44 1014.61 1015.27 1015.18 1014.93 1014.55 1014.45 1013.98 1012.66 1012.41 1012.47 1012.41 1012.00 1011.36 1010.74 1010.08 1009.51 1009.10 1008.54 1007.93 1007.32 1006.47 1005.64 1004.80 1003.74 1002.84 1002.03 1001.36 1001.24 1001.57 1002.14 1002.63 1003.26 1003.99 1004.54
1016.32 1016.25 1015.66 1015.54 1014.84 1013.88 1014.43 1014.97 1015.04 1014.95 1014.86 1015.65 1015.86 1015.38 1015.07 1014.69 1013.52 1012.51 1012.91 1012.85 1012.27 1011.80 1011.22 1010.51 1009.83 1009.26 1008.70 1008.06 1007.63 1007.09 1006.16 1005.44 1004.70 1004.08 1003.35 1002.37 1001.71 1000.84 1000.85 1001.34 1001.49 1002.00 1002.81 1003.45
1016.38 1016.29 1015.84 1015.44 1015.30 1014.76 1015.58 1015.51 1014.98 1015.36 1015.98 1015.81 1016.04 1015.63 1015.34 1014.98 1014.51 1013.49 1013.07 1012.37 1011.86 1011.20 1010.55 1010.01 1009.41 1008.78 1008.25 1007.72 1007.25 1006.63 1005.85 1005.22 1004.67 1003.96 1003.12 1002.08 1001.29 1000.48 1000.22 1000.40 1000.85 1001.33 1001.96 1002.75
1016.83 1016.67 1016.24 1016.34 1015.93 1015.74 1016.46 1016.14 1016.98 1017.01 1016.74 1016.50 1015.99 1015.54 1015.02 1014.51 1013.79 1013.11 1012.42 1011.77 1011.23 1010.56 1009.89 1009.37 1008.69 1008.12 1007.74 1007.30 1006.78 1006.17 1005.34 1004.72 1004.40 1003.84 1002.86 1001.93 1001.00 1000.15 999.55 999.53 999.89 1000.59 1001.27 1002.26
1017.78 1017.82 1017.44 1017.24 1016.19 1016.46 1017.05 1017.19 1017.21 1017.25 1016.94 1016.34 1015.86 1015.25 1014.76 1013.93 1013.08 1012.43 1011.58 1010.97 1010.38 1009.92 1009.33 1008.74 1008.09 1007.42 1007.05 1006.68 1006.14 1005.58 1004.83 1004.45 1003.92 1003.41 1002.52 1001.72 1000.83 999.98 999.02 998.86 999.22 1000.00 1000.55 1001.28
1018.60 1018.72 1018.20 1017.87 1017.03 1016.70 1016.82 1016.74 1017.02 1016.86 1016.52 1016.10 1015.61 1015.01 1014.54 1013.55 1012.88 1011.95 1011.24 1010.46 1009.77 1009.24 1008.55 1008.00 1007.36 1006.64 1006.07 1005.86 1005.40 1005.00 1004.45 1004.08 1003.71 1002.98 1002.39 1001.61 1000.70 1000.04 998.96 998.55 998.93 999.48 1000.06 1000.72
1019.00 1019.15 1018.40 1017.96 1017.36 1016.85 1016.40 1016.57 1016.49 1016.23 1015.88 1015.46 1014.99 1014.44 1013.84 1013.21 1012.40 1011.57 1010.69 1009.97 1009.15 1008.47 1007.88 1007.39 1006.71 1006.00 1005.28 1005.04 1004.67 1004.22 1003.85 1003.55 1003.33 1002.74 1002.24 1001.66 1001.06 1000.59 1000.02 999.80 999.86 999.71 999.75 1000.00
1019.12 1018.66 1018.34 1017.56 1017.44 1017.37 1016.49 1016.27 1016.10 1015.81 1015.25 1014.66 1014.21 1013.58 1012.96 1012.36 1011.39 1010.61 1009.85 1009.29 1008.69 1007.97 1007.14 1006.46 1005.92 1005.31 1004.70 1004.33 1003.94 1003.43 1003.07 1002.94 1002.76 1002.31 1001.96 1001.66 1001.20 1000.82 1000.53 1000.27 1000.49 1000.61 1000.37 1000.45
Wind_Speed
2 5 7 5 4 2 2 3 6 8 7 4 7 13 13 6 12 16 18 18 20 24 19 19 19 19 18 17 17 15 16 16 11 11 11 10 12 10 10 10 13 13 12 13
4 8 7 3 5 6 4 4 8 9 4 7 5 9 10 7 10 16 16 17 22 20 18 18 20 19 20 19 17 17 18 16 14 12 11 9 10 10 10 8 10 12 13 13
6 2 7 7 6 7 6 8 4 5 3 4 4 6 4 4 8 9 14 16 19 20 21 18 19 20 20 20 20 20 20 18 17 17 11 9 6 5 7 9 9 11 14 14
6 2 6 6 6 8 4 8 7 4 4 3 3 7 5 3 9 10 13 16 18 19 20 19 22 19 20 23 20 20 20 19 17 17 15 19 16 15 12 10 10 12 15 15
1 5 5 5 5 9 3 4 3 1 4 3 5 5 2 3 8 11 11 15 16 18 19 21 23 23 26 22 23 21 20 20 20 20 21 16 18 14 10 11 15 11 9 9
7 1 5 6 2 8 2 3 2 2 3 5 2 5 4 3 6 5 6 5 9 12 14 19 22 22 21 22 22 22 23 24 23 23 24 23 23 18 12 14 11 9 9 7
2 5 2 4 6 3 2 3 5 6 6 6 4 4 9 8 12 5 9 11 12 13 12 12 15 17 17 16 19 17 21 24 23 24 23 25 23 22 19 17 12 17 10 12
4 3 4 4 4 2 4 3 5 6 8 10 4 6 6 7 8 5 5 8 9 12 12 14 15 13 14 13 17 18 21 23 18 21 24 22 22 16 15 17 15 13 14 17
4 5 2 5 3 4 4 7 2 3 2 4 4 5 11 5 11 11 13 13 15 14 15 15 14 14 14 14 15 18 19 18 19 20 19 22 21 23 20 19 16 15 14 13
0 5 2 4 1 3 4 6 3 2 5 11 6 4 8 1 10 11 14 15 16 17 18 17 18 18 15 14 13 13 15 17 15 18 18 17 20 20 18 16 19 18 17 18
2 3 1 3 1 3 1 3 2 2 3 9 12 6 4 9 9 9 12 14 16 17 17 17 17 17 19 19 16 11 9 13 14 16 17 18 17 17 17 16 17 18 18 20
3 0 4 8 5 4 2 2 3 3 3 1 3 5 8 11 9 9 10 11 13 14 16 17 18 18 19 20 20 17 9 10 12 14 15 17 15 17 17 17 19 19 20 21
3 0 6 5 4 4 4 4 4 1 2 7 7 3 7 8 9 9 11 12 12 14 17 17 18 19 19 19 19 19 17 11 11 12 15 16 17 18 18 19 18 19 20 21
1 2 6 8 6 3 8 12 7 5 7 12 13 17 12 9 10 9 10 12 12 14 16 17 17 18 18 18 19 19 19 18 11 12 14 16 18 19 19 18 19 19 20 20
3 4 4 10 15 15 13 14 16 16 18 15 18 20 9 10 11 10 7 11 13 14 16 16 17 18 19 19 19 19 18 18 17 12 14 16 15 17 18 19 19 18 19 17
3 3 1 10 12 13 17 19 20 19 17 18 15 16 4 7 9 9 7 10 12 14 16 16 17 18 18 19 20 19 20 20 18 15 14 14 15 16 16 17 17 16 16 16
3 3 2 4 5 6 10 10 9 11 4 4 6 5 7 9 11 13 12 9 13 14 15 16 18 17 17 18 19 20 20 20 20 19 14 14 15 16 14 16 18 18 18 17
5 5 3 3 4 6 5 5 7 7 5 6 5 7 8 10 14 17 12 10 15 18 18 18 16 16 17 18 18 19 18 18 18 19 16 14 14 14 13 14 16 15 15 19
10 5 4 4 5 6 8 4 4 5 2 9 11 13 11 13 17 13 6 14 19 21 20 18 19 18 16 17 17 17 17 17 16 17 16 16 15 13 13 14 15 15 14 15
9 1 5 3 5 6 5 6 12 4 8 8 16 16 13 16 15 13 16 21 21 20 18 18 20 19 17 17 14 15 16 16 16 16 16 14 14 14 17 16 16 15 15 15
3 3 6 5 6 4 5 13 11 8 7 20 16 14 15 17 16 21 21 21 19 19 19 18 18 16 17 17 16 15 14 13 16 17 16 15 14 13 15 15 14 15 14 13
2 2 3 2 5 6 9 3 6 9 15 14 17 19 21 21 22 21 21 20 20 20 20 19 17 16 15 16 14 15 15 12 12 15 16 16 15 12 9 14 12 13 13 15
3 4 3 5 3 1 2 7 10 8 12 17 19 21 22 24 24 24 23 23 22 22 19 18 17 17 15 15 13 14 15 13 12 13 16 15 15 15 12 11 12 12 15 14
1 0 4 5 1 9 14 13 6 13 16 20 21 22 22 25 25 26 23 21 21 20 20 18 19 17 16 14 15 13 14 13 10 12 13 14 15 15 9 7 10 11 12 10
3 1 4 7 12 13 6 13 16 20 21 21 19 20 22 22 22 24 21 21 21 20 20 19 18 17 18 15 15 16 14 10 9 7 11 11 9 10 5 5 3 3 6 10
4 3 4 4 11 13 18 20 24 19 22 22 20 20 22 21 22 21 19 17 17 18 20 19 20 19 19 17 17 17 14 8 11 7 7 8 6 6 7 1 3 13 4 9
Wind_Direction
99 208 219 234 198 173 189 264 283 268 260 251 236 265 272 261 229 240 231 213 214 218 212 215 214 215 213 211 205 205 202 207 196 196 198 207 214 213 220 221 212 193 183 176
166 244 226 163 181 207 214 262 259 279 237 214 236 256 288 251 250 244 247 233 226 230 222 217 219 215 212 208 207 206 211 205 197 198 201 205 209 219 224 216 217 207 192 180
220 210 131 178 189 212 223 230 245 269 278 239 266 246 267 260 267 266 248 248 240 232 226 221 219 216 213 218 209 210 210 206 206 202 193 197 204 205 196 203 207 200 193 186
240 192 217 190 222 202 267 208 254 247 240 223 293 284 262 277 274 246 241 237 239 232 231 223 227 215 218 220 217 217 215 210 205 200 198 200 204 208 213 204 197 186 191 186
218 183 166 195 230 188 256 174 270 194 168 234 177 258 245 287 281 273 259 244 246 246 241 234 229 229 220 218 216 214 210 208 206 199 207 204 215 215 203 197 177 186 181 190
265 235 218 233 211 200 110 203 109 118 170 241 228 254 255 246 274 292 287 304 295 302 287 272 260 248 235 224 218 213 208 212 202 200 202 205 209 210 193 186 174 154 154 183
275 237 254 212 250 163 189 260 258 246 234 280 120 218 276 253 262 281 350 6 3 0 353 328 307 279 256 242 237 226 216 217 205 203 203 207 208 206 199 187 168 157 171 194
291 276 172 172 204 245 178 219 286 286 276 289 137 236 275 272 32 4 70 41 30 13 353 349 346 332 306 274 243 222 216 226 211 207 208 205 207 208 203 196 180 180 181 179
196 259 299 224 237 232 143 221 357 198 131 251 271 253 271 271 73 46 32 12 15 4 6 3 356 349 329 314 280 245 229 224 215 211 203 207 204 206 201 191 183 178 180 171
119 280 272 307 287 89 249 133 220 203 251 265 223 262 272 334 42 31 25 12 2 1 1 0 1 357 352 341 325 275 236 226 215 208 210 212 211 208 201 188 183 178 172 174
3 257 273 264 227 336 205 214 63 296 270 279 279 268 24 86 53 36 24 9 1 356 352 353 354 356 357 358 352 335 270 235 218 213 210 212 211 207 203 195 187 178 172 179
35 223 258 277 308 324 336 54 67 280 252 250 301 267 82 76 55 34 23 6 358 354 355 353 350 353 356 358 360 350 320 268 238 226 215 213 204 202 198 198 191 181 180 183
0 40 302 265 177 99 71 86 59 43 226 240 268 269 135 55 29 24 10 5 358 353 357 355 353 356 352 351 352 353 344 311 270 231 220 210 206 204 203 201 194 185 185 186
243 217 250 272 296 293 291 292 307 297 266 277 259 286 264 350 8 13 9 2 357 358 360 356 352 351 349 346 343 343 342 337 296 256 227 216 213 208 207 206 198 192 189 187
19 263 228 275 285 292 280 274 277 270 267 259 279 280 321 346 350 352 350 358 357 358 355 353 349 346 345 344 342 337 334 333 326 277 246 234 219 213 211 205 201 194 197 199
22 269 279 281 276 275 278 280 286 283 280 270 284 279 15 335 337 343 329 348 350 349 345 342 340 339 340 338 337 332 328 328 325 298 264 247 232 219 213 204 200 195 190 192
261 241 213 262 346 301 260 266 281 289 45 322 310 7 340 335 341 336 321 328 339 337 333 330 330 329 328 329 331 329 325 321 321 319 281 258 244 231 215 204 198 193 192 184
206 195 227 271 283 244 85 53 43 93 68 37 10 337 330 328 322 317 309 307 334 332 327 324 319 320 320 322 320 324 324 321 320 319 305 275 251 235 222 202 200 196 192 185
214 200 207 255 233 325 265 58 10 346 154 39 3 342 325 327 316 297 302 327 324 313 311 311 310 309 311 312 315 317 320 318 320 320 328 316 272 242 217 201 199 195 189 192
153 236 247 185 263 272 70 13 333 275 245 19 348 326 326 326 308 309 323 309 302 298 297 301 305 303 302 307 312 310 313 319 318 320 311 303 305 250 229 212 199 189 194 193
159 181 245 245 261 260 42 346 323 252 348 331 333 314 313 308 294 297 300 299 297 297 296 300 300 296 296 301 307 302 302 307 312 312 305 296 288 273 235 222 204 193 190 183
271 272 234 202 257 262 10 49 350 325 307 307 312 310 306 301 299 294 293 291 295 299 295 296 298 297 293 295 302 296 296 304 308 308 306 303 296 278 238 219 198 189 167 150
235 313 320 249 327 332 27 320 299 287 296 310 307 305 304 300 298 300 296 294 295 294 291 290 290 296 294 293 295 292 289 300 306 310 309 312 308 297 265 210 184 164 165 164
160 243 263 311 128 305 316 311 291 298 304 303 300 300 300 296 298 296 295 295 295 293 293 290 287 288 288 290 300 294 290 292 292 304 308 312 319 314 276 202 177 172 174 172
293 226 268 267 282 302 263 309 317 307 305 303 302 301 300 298 293 291 291 289 290 291 290 288 286 283 287 290 295 301 297 284 274 285 300 303 310 320 345 45 4 197 187 181
204 225 259 297 305 299 297 312 312 312 306 307 304 302 301 300 295 292 288 287 288 290 291 289 288 286 289 290 293 297 296 271 266 264 289 292 303 311 300 239 67 37 110 151